Overview Statistics Trail Chart Weather Telemetry Raw packets
 

This is the latest recevied weather packets stored in our database for station/object KF0WJA. If no packets are shown the sender has not sent any weather packets the latest 10 day(s).

<< 32 33 34 35 36 37 38 >>
Time Temp. Humidity Pressure Rain* Wind** Luminosity Snow
1788444375 27.22° C 71% 1016.7 hPa 0 mm - 190 W/m² -
1788444092 27.22° C 72% 1016.9 hPa 0 mm - 178 W/m² -
1788443767 27.22° C 72% 1016.6 hPa 0 mm - 155 W/m² -
1788443466 26.67° C 73% 1016.8 hPa 0 mm - 146 W/m² -
1788443165 26.67° C 73% 1016.7 hPa 0 mm - 128 W/m² -
1788442861 26.11° C 74% 1016.8 hPa 0 mm - 119 W/m² -
1788442575 26.11° C 74% 1016.8 hPa 0 mm - 53 W/m² -
1788442254 26.11° C 75% 1016.6 hPa 0 mm - 48 W/m² -
1788441949 26.11° C 75% 1016.7 hPa 0 mm - 44 W/m² -
1788441645 26.11° C 75% 1016.7 hPa 0 mm - 43 W/m² -
1788441344 25.56° C 76% 1016.7 hPa 0 mm - 41 W/m² -
1788441057 25.56° C 76% 1016.7 hPa 0 mm - 39 W/m² -
1788440744 25.56° C 77% 1016.7 hPa 0 mm - 38 W/m² -
1788440439 25° C 77% 1016.3 hPa 0 mm - 37 W/m² -
1788440137 25° C 78% 1016.5 hPa 0 mm - 40 W/m² -
1788439833 25° C 78% 1016.5 hPa 0 mm - 36 W/m² -
1788439533 25° C 79% 1016.3 hPa 0 mm - 33 W/m² -
1788439233 24.44° C 79% 1016.1 hPa 0 mm - 29 W/m² -
1788438932 24.44° C 79% 1016.5 hPa 0 mm - 26 W/m² -
1788438631 24.44° C 79% 1016.6 hPa 0 mm - 22 W/m² -
1788438331 24.44° C 80% 1016.5 hPa 0 mm - 19 W/m² -
1788438031 24.44° C 80% 1016.1 hPa 0 mm - 15 W/m² -
1788437725 24.44° C 80% 1016.2 hPa 0 mm - 13 W/m² -
1788437421 23.89° C 80% 1016.3 hPa 0 mm - 8 W/m² -
1788437120 23.89° C 80% 1016.1 hPa 0 mm - 5 W/m² -

* Rain latest hour (hover to see other rain measurements)
** Current wind speed in m/s (hover to see current wind gust speed)